Location: Laas
(43.4693°N, 0.3073°E)
Time: 16:09:30
(UTC+00:00)

Cosmos 2369 - Pass Details

Date: 25 October 2020
Orbit: 840 x 855 km, 71.0° (Epoch: 24 November)

Event Time Altitude Azimuth Distance (km) Brightness Sun altitude
Rises 19:18:28 0° 199° (SSW) 3,409 7.0 -25.8°
Reaches altitude 10° 19:20:55 10° 199° (SSW) 2,476 6.2 -26.3°
Enters shadow 19:26:16 77° 159° (SSE) 879 3.6 -27.2°
